Regional Weather Roundup
Issued by NWS Nashville, TN

Home | Current Version | Previous Version | Text Only | Print | Product List | Glossary On
Versions: 1 2 3 4 5 6 7 8 9 10 11 12 13 14 15 16 17 18 19 20 21 22 23 24 25 26 27
000
ASUS44 KOHX 151010
RWROHX
MIDDLE TENNESSEE HOURLY WEATHER ROUNDUP
NATIONAL WEATHER SERVICE NASHVILLE TN
400 AM CST FRI DEC 15 2017

NOTE: "FAIR" INDICATES FEW OR NO CLOUDS BELOW 12,000 FEET WITH
NO SIGNIFICANT WEATHER AND/OR OBSTRUCTIONS TO VISIBILITY.

* THESE REPORTS ARE NOT UNDER NWS QUALITY CONTROL AND MAY NOT
  REPORT WEATHER SUCH AS PRECIPITATION AND FOG.


TNZ005>011-023>034-057-059-062>066-078-080-151100
...NORTHERN MIDDLE TENNESSEE...

CITY           SKY/WX    TMP DP  RH WIND       PRES   REMARKS
CLARKSVILLE    CLOUDY    31  21  66 W6        30.09F WCI  25
CROSSVILLE     CLOUDY    25  22  88 W3        29.98S
GALLATIN       CLOUDY    32  23  69 VRB5      30.10S WCI  27
DICKSON          N/A     29  21  71 NW5       30.06S WCI  24
NASHVILLE      CLOUDY    33  20  58 N6        30.08F WCI  28
PORTLAND       CLOUDY    30  23  74 CALM      30.06S
SMYRNA         CLOUDY    32  23  69 NW6       30.09F WCI  26
SPARTA         CLOUDY    30  25  80 CALM      30.02F
SPRINGFIELD    CLOUDY    30  21  69 NW5       30.06S WCI  25
WEST NASHVILLE CLOUDY    32  21  64 NW3       30.07S
$$
TNZ056-058-060-061-075>077-079-093>097-151100
...SOUTHERN MIDDLE TENNESSEE...

CITY           SKY/WX    TMP DP  RH WIND       PRES   REMARKS
COLUMBIA       CLOUDY    27  25  93 CALM      30.06S
FAYETTEVILLE   CLEAR     25  23  93 CALM      30.06R
MCMINNVILLE    CLOUDY    27  23  86 CALM      30.05S
MURFREESBORO   CLOUDY    31  23  72 CALM      30.07F
PULASKI        MOCLDY    23  21  93 CALM      30.09R
SHELBYVILLE    CLOUDY    27  25  93 CALM      30.07S
TULLAHOMA      CLOUDY    25  21  86 CALM      30.05S
WINCHESTER     PTCLDY    27  21  80 CALM      30.06S
$$


...KEY TO REMARKS...
VSB - VISIBILITY IN MILES
WCI - WIND CHILL INDEX
HX  - HEAT INDEX





USA.gov is the U.S. government's official web portal to all federal, state and local government web resources and services.